RH
38 16 17 10 14 11 9 6 4 12 15 13 25 33 46 48 42 66 40 39 46 57 64 72 92 91 90 89 90 90 90 89 88 89 89 88 87 87 87 88 86 83 79 74 75 77 78 79 81
14 10 7 10 14 11 8 5 10 21 18 20 22 30 43 61 47 40 44 35 44 46 58 70 93 92 91 89 88 89 87 87 89 88 87 87 86 86 87 87 86 84 80 74 77 76 78 80 83
18 11 10 11 11 12 9 14 24 22 17 22 34 38 40 54 45 42 41 37 41 45 59 79 93 91 90 91 91 92 92 91 90 88 85 84 83 84 86 89 85 82 77 76 75 76 78 81 82
10 9 8 12 12 9 8 15 25 26 24 24 37 54 46 41 47 48 40 48 54 54 62 88 93 93 92 92 92 92 93 92 92 89 87 84 84 85 86 88 85 81 77 75 75 76 78 82 81
9 8 11 10 10 9 12 17 21 27 29 28 31 51 58 49 46 45 48 51 59 59 65 73 93 93 92 91 92 93 93 93 91 89 87 84 82 84 86 88 85 82 78 76 76 77 80 81 81
10 8 12 12 9 8 15 17 21 25 32 32 48 57 66 47 51 50 52 61 60 60 65 71 88 93 94 95 95 95 94 93 92 90 88 84 84 85 85 85 85 84 82 81 79 80 80 80 80
12 9 10 9 9 8 19 18 21 32 36 36 43 60 65 50 56 50 54 62 70 66 66 72 76 89 96 96 97 94 92 92 91 88 86 85 87 86 84 84 84 84 84 83 83 82 80 78 78
10 10 10 8 8 8 20 21 18 24 32 28 40 62 75 54 54 55 57 65 72 74 71 72 77 73 80 85 96 95 93 91 89 88 85 85 85 86 85 86 88 86 86 84 84 86 86 86 86
9 12 12 9 7 7 21 22 18 22 37 34 34 43 51 50 47 65 66 69 76 74 77 77 73 72 74 77 82 90 89 88 88 85 85 85 82 81 79 92 91 88 86 86 84 85 86 88 87
11 13 11 7 6 5 22 19 22 28 36 42 46 49 52 46 51 62 66 66 70 75 78 78 78 78 74 53 78 76 66 67 74 75 75 79 82 83 72 83 88 85 82 82 84 81 83 86 83
10 12 9 7 6 5 17 18 26 22 33 42 53 54 48 45 51 54 49 50 56 62 75 76 81 74 67 64 66 63 82 73 75 76 76 79 83 88 89 88 83 83 73 68 71 69 67 71 70
10 9 8 6 5 6 29 50 65 26 49 39 44 45 40 41 43 40 42 51 74 78 77 77 80 83 82 68 69 70 67 72 71 75 78 80 73 78 78 72 74 67 61 66 70 73 75 78 77
9 9 8 6 6 8 28 41 74 59 56 84 50 44 46 43 40 44 58 57 65 75 81 80 77 80 78 79 77 75 74 73 76 77 76 76 81 81 78 72 67 66 64 64 61 61 64 71 66
8 9 8 6 7 12 13 18 46 92 71 68 53 52 52 52 48 48 56 60 66 72 79 79 76 80 78 83 83 80 76 76 74 69 70 72 75 80 71 69 64 63 63 63 60 63 67 62 64
7 10 9 8 10 14 12 17 51 76 77 61 56 58 54 51 48 57 64 73 69 73 76 79 81 80 80 78 75 73 74 68 63 66 71 68 68 71 70 67 67 64 59 56 56 60 62 67 55
9 11 13 12 13 13 14 26 73 60 53 58 61 60 60 55 50 61 66 69 69 74 76 73 65 76 77 77 72 61 64 63 60 63 65 64 61 64 66 63 65 64 59 56 58 64 68 68 68
11 15 14 15 13 14 24 25 66 55 50 56 60 63 66 62 62 59 65 72 72 70 67 68 71 70 68 68 63 64 64 61 57 58 60 63 58 57 62 63 64 62 59 64 68 71 73 73 68
16 18 15 17 14 19 25 30 61 55 57 65 64 64 65 64 63 61 65 74 82 75 78 73 68 70 66 64 61 56 59 57 54 54 54 60 56 57 59 61 65 61 61 64 67 72 70 67 71
14 16 15 13 14 22 25 28 59 52 53 63 66 64 62 65 57 58 61 67 72 75 76 67 73 73 63 60 58 57 59 59 56 53 57 60 61 60 64 59 62 62 66 70 66 61 62 62 61
14 13 14 10 14 23 22 22 63 72 48 53 61 63 60 59 56 56 58 61 71 70 69 70 71 69 68 68 68 60 56 57 53 52 53 56 59 60 51 63 59 60 62 72 72 69 65 63 63
16 14 13 12 10 21 21 22 39 47 40 42 46 49 50 50 49 48 49 57 61 66 69 69 70 67 69 66 60 55 53 56 56 53 50 53 54 55 60 62 65 64 63 67 70 70 69 67 67
17 11 11 11 24 34 22 29 20 37 38 36 41 43 44 41 41 42 44 49 55 61 64 66 63 58 60 61 61 63 54 54 60 57 57 54 60 58 56 63 66 66 65 69 66 63 65 68 61
12 11 11 12 19 26 25 30 20 33 38 36 37 40 39 39 41 44 46 46 46 57 63 64 60 56 58 61 62 62 61 60 59 60 64 64 64 62 59 66 67 70 71 71 73 74 70 66 66
10 12 13 16 18 38 23 24 29 32 35 29 30 36 36 37 40 40 42 43 43 46 59 62 59 56 57 58 62 64 64 61 64 68 68 66 66 65 65 62 68 68 69 71 74 73 75 76 71
12 21 32 35 36 39 20 24 25 17 23 25 27 32 35 35 38 38 38 38 41 49 58 60 56 55 57 61 60 62 62 62 66 66 66 68 70 72 71 70 68 68 69 69 70 74 76 76 75
14 19 36 40 37 28 18 29 20 13 12 18 22 28 33 35 38 36 36 38 39 49 56 56 53 54 56 59 61 59 57 54 56 59 58 61 65 69 72 70 69 67 67 68 70 73 73 75 78
16 20 15 30 27 31 21 20 14 15 16 16 23 27 32 34 36 36 36 39 39 44 56 58 52 51 54 58 61 61 59 56 53 61 64 64 67 59 69 70 68 67 66 67 70 74 72 70 73
13 11 28 31 68 49 28 21 29 25 23 21 23 24 29 31 32 35 35 39 37 42 54 59 53 50 54 58 58 53 57 57 61 63 64 65 68 68 70 69 68 66 65 65 68 70 67 70 74
15 17 21 27 35 50 49 35 26 24 25 26 24 20 23 30 33 35 35 36 37 41 48 56 52 50 56 58 57 58 55 59 62 64 64 67 71 68 65 65 64 63 63 63 65 64 61 64 68
12 17 21 62 51 43 65 59 30 24 25 25 21 18 19 28 31 33 36 38 38 42 47 51 53 51 55 55 54 58 59 57 61 62 65 69 67 66 62 61 58 57 59 62 62 61 59 62 64
Wind_Speed
10 13 9 9 7 8 15 19 22 10 10 12 25 20 22 18 9 12 12 19 23 18 16 16 15 14 14 14 13 14 14 14 13 13 13 13 12 11 11 10 11 12 13 14 13 13 12 12 11
9 17 7 7 10 11 13 14 13 20 17 20 15 15 21 18 14 17 12 14 22 18 15 15 14 13 13 13 13 13 14 14 12 12 11 12 12 11 10 10 10 11 12 13 12 11 11 9 8
10 13 8 8 11 14 13 18 19 17 14 15 13 17 9 15 14 8 13 16 9 18 17 14 14 13 13 14 14 14 13 12 11 11 11 11 12 11 11 10 10 10 11 11 10 10 9 7 6
8 7 7 10 18 21 21 12 15 15 11 12 20 13 7 12 7 9 13 13 13 18 17 14 14 14 14 14 14 13 12 11 11 11 10 10 10 10 10 9 9 9 9 8 8 7 7 5 5
11 8 12 15 19 21 2 12 12 10 7 6 14 12 9 12 14 15 15 8 12 16 14 14 13 14 15 15 14 13 12 11 10 9 9 9 8 9 9 8 8 8 7 6 6 5 4 3 3
10 11 14 16 20 21 10 9 13 11 8 9 16 15 8 10 16 14 12 10 11 12 14 13 13 14 14 15 14 13 12 10 10 8 7 8 7 7 7 7 7 7 6 5 4 3 3 2 3
16 13 17 21 19 19 14 12 12 19 12 7 17 9 12 12 16 11 11 14 11 11 14 11 12 13 14 13 14 12 11 9 8 7 5 4 5 5 6 6 6 6 5 4 3 2 3 4 5
14 14 22 19 19 21 17 14 11 14 14 14 14 9 12 13 17 15 12 10 11 9 12 11 11 11 10 9 12 11 8 7 7 6 6 5 5 6 6 8 5 4 3 2 3 4 6 5 6
20 14 16 22 22 21 19 15 10 15 16 12 11 13 24 18 19 15 12 10 9 9 8 8 9 10 9 8 8 9 8 7 7 6 8 5 5 6 5 7 5 4 4 5 5 5 6 4 7
19 15 22 22 21 21 20 17 18 18 20 12 16 25 23 21 19 14 12 12 10 9 8 6 8 8 9 8 9 8 8 3 5 9 7 5 6 6 4 7 4 4 1 4 6 8 8 3 2
23 18 20 24 24 20 17 18 18 14 18 23 19 20 22 23 17 17 15 15 15 13 7 9 6 4 2 4 4 4 6 6 6 10 10 6 5 4 4 0 2 4 3 2 2 2 4 3 3
23 23 24 23 23 17 7 5 9 13 10 24 24 20 20 17 15 14 10 14 17 15 12 9 9 8 9 6 7 7 6 6 6 5 7 6 4 5 4 4 4 4 5 4 2 2 1 6 12
23 20 22 24 19 12 21 19 25 11 24 22 12 19 15 16 14 14 15 16 15 15 11 10 8 8 7 9 6 8 7 5 3 3 5 4 1 2 3 2 1 2 4 4 5 5 3 8 9
17 19 22 21 13 9 11 7 11 14 14 21 20 17 14 17 15 13 13 12 12 13 10 7 7 7 7 6 6 4 3 4 4 6 6 7 5 4 4 5 5 5 5 4 4 3 1 6 6
20 18 19 15 11 14 18 16 13 21 21 20 20 14 15 14 15 14 12 12 13 11 10 7 7 6 5 6 5 3 2 2 5 6 6 7 6 6 6 5 5 5 5 7 5 5 4 4 6
18 14 18 14 17 20 19 14 18 25 20 19 18 14 12 13 16 16 15 15 15 14 10 8 8 8 8 6 3 4 5 4 5 6 5 7 7 7 7 5 5 5 5 5 4 4 5 5 5
18 15 22 19 20 16 13 15 22 22 19 18 17 15 14 13 12 13 12 10 8 10 14 11 5 4 6 8 5 5 7 5 5 7 5 6 6 6 6 4 4 5 5 5 5 5 4 3 4
19 21 18 20 20 15 15 12 21 19 19 16 17 15 16 16 16 14 14 10 9 9 12 9 6 6 6 5 4 5 6 7 7 6 6 8 6 7 5 4 5 6 5 5 5 7 5 6 5
20 21 22 23 19 21 17 17 17 11 17 15 17 17 16 16 16 17 15 14 13 11 9 9 8 5 3 3 3 6 4 5 6 5 7 7 7 7 8 5 5 6 5 6 7 4 7 6 6
24 23 22 18 20 19 19 20 24 23 20 20 20 17 17 18 18 18 16 15 14 13 12 11 8 7 5 2 1 4 4 5 5 5 7 6 7 8 7 6 5 6 5 7 7 6 1 4 6
23 22 19 22 20 22 17 20 25 31 25 24 20 19 19 20 20 18 18 17 15 15 14 11 10 9 7 6 6 5 5 4 3 5 7 6 7 7 6 7 6 6 6 5 6 7 8 4 4
20 22 18 17 16 12 15 12 22 21 16 18 20 18 20 20 20 18 18 17 17 15 14 13 12 11 8 10 8 7 4 5 6 7 6 4 8 7 7 6 6 8 7 8 5 6 5 6 6
17 17 17 16 17 14 20 13 16 26 23 22 22 19 19 19 20 20 19 17 16 17 15 15 14 12 9 8 7 6 9 7 6 7 6 8 7 5 4 6 7 6 4 5 6 6 7 7 5
16 15 16 15 12 12 16 16 18 16 18 20 21 23 19 22 20 19 17 16 15 15 16 14 15 13 12 10 8 10 10 9 6 6 4 4 3 3 6 6 5 7 4 5 4 6 8 7 8
15 16 9 11 12 8 17 18 10 17 25 26 21 21 22 20 21 19 19 16 16 17 15 14 15 14 12 10 9 10 10 10 10 7 5 5 3 4 5 5 5 4 5 5 6 6 6 7 7
17 16 7 18 13 10 14 18 16 14 13 19 20 20 21 19 18 19 19 17 16 16 17 16 16 16 13 12 9 10 9 7 7 6 6 6 4 4 6 5 5 5 5 6 6 4 5 6 5
20 19 17 11 14 13 13 15 19 5 13 4 21 22 22 21 19 21 19 16 16 15 16 15 16 16 14 12 10 9 8 9 8 8 6 5 7 5 5 6 6 5 6 6 6 5 5 5 4
20 14 16 10 7 15 13 18 12 10 6 13 13 14 23 24 22 21 19 17 14 14 12 12 12 15 14 13 10 9 7 6 7 7 7 8 6 7 6 6 5 5 5 6 6 5 4 6 4
17 16 15 11 10 7 8 11 4 20 13 10 14 12 14 23 22 20 18 18 15 14 14 11 11 15 14 12 11 10 8 7 7 6 7 7 7 6 6 6 6 6 5 6 5 5 5 6 6
21 19 17 8 20 11 4 6 8 5 9 12 12 15 11 18 22 21 19 20 17 16 15 13 11 14 14 13 11 10 9 9 8 7 7 7 7 6 6 6 6 6 5 6 6 7 5 6 6
Wind_Direction
272 256 245 262 246 231 256 248 252 96 80 63 54 81 75 38 22 121 90 108 111 108 114 107 103 99 96 95 94 94 86 85 80 73 72 73 69 77 78 73 80 85 87 83 79 77 73 70 64
286 286 235 269 242 248 244 260 64 69 87 78 68 94 70 68 72 112 104 118 114 120 112 109 104 102 95 89 88 87 92 87 83 83 78 80 75 72 78 73 72 81 85 86 86 83 79 73 62
257 264 260 233 238 249 270 34 76 85 97 91 92 47 57 107 101 114 127 100 107 121 110 114 107 103 96 90 86 84 82 84 82 79 81 77 81 77 75 74 74 78 84 88 86 81 76 68 52
242 221 247 256 247 232 248 82 82 93 95 109 95 84 80 49 98 115 121 84 102 107 109 112 110 108 103 99 94 89 81 75 77 76 77 80 84 85 80 71 81 82 83 83 84 84 80 66 48
232 268 237 242 243 264 248 109 106 107 103 112 115 101 97 83 103 134 118 114 106 106 115 112 105 108 105 101 98 91 84 80 75 80 85 85 84 90 88 84 83 85 83 83 80 74 68 58 24
226 225 252 236 249 241 148 116 135 131 113 124 94 113 97 143 122 147 123 111 113 122 110 118 108 103 101 102 95 92 88 83 85 78 80 88 87 91 94 91 86 79 76 68 63 49 18 342 321
240 237 236 252 253 245 139 149 160 135 150 172 133 111 131 141 134 150 110 122 113 119 123 131 125 108 99 97 97 101 105 100 96 96 96 109 123 116 106 92 79 79 69 50 31 9 312 291 310
231 249 254 245 260 262 150 159 172 150 144 138 130 149 161 155 142 116 122 117 128 118 129 138 135 132 123 117 117 121 122 127 134 143 159 178 179 169 145 122 77 56 48 11 317 301 291 324 323
227 244 243 248 246 263 133 168 165 134 127 152 166 149 143 156 128 114 127 138 125 130 135 147 149 125 118 132 139 137 153 172 162 182 210 186 220 160 115 92 105 74 19 339 312 299 296 305 274
229 226 239 244 253 255 156 181 162 150 152 128 95 111 138 156 133 138 149 145 143 135 144 142 127 134 159 142 162 175 154 150 62 33 9 31 27 58 62 102 124 140 306 259 271 288 298 274 41
222 236 230 249 258 267 181 185 145 187 168 149 139 135 151 149 144 154 163 153 148 156 123 94 123 161 173 128 181 57 68 60 52 30 1 23 39 24 25 14 187 234 102 321 286 71 30 33 28
224 221 245 241 247 256 117 72 8 270 35 134 138 140 154 153 144 156 118 89 89 89 90 71 42 48 35 38 37 71 67 58 42 43 18 16 14 18 11 5 354 13 5 358 30 35 212 59 73
225 224 225 248 263 256 148 152 170 174 98 95 122 146 151 141 135 98 91 100 98 95 88 75 57 43 38 54 40 41 54 68 77 51 26 22 266 2 232 222 302 28 19 11 2 23 46 77 82
218 223 245 230 240 269 246 190 114 35 28 128 158 143 141 123 125 122 109 111 105 102 99 100 98 72 70 60 61 64 80 140 119 51 33 24 27 359 1 22 24 18 32 343 10 354 41 101 91
231 215 238 223 218 233 232 220 142 138 167 167 137 132 128 144 138 121 109 109 111 108 115 114 115 102 105 129 140 127 161 176 75 80 33 30 30 360 2 40 23 360 11 6 15 319 58 64 99
238 225 222 200 214 226 228 215 134 160 152 149 135 141 134 137 147 124 120 122 125 126 138 159 137 158 162 146 111 63 41 60 75 81 59 42 26 13 32 42 5 334 31 11 345 341 81 48 65
226 206 227 204 203 211 217 234 145 183 150 147 148 145 140 157 131 149 138 132 130 133 132 120 97 108 119 98 115 108 77 61 66 66 45 57 29 30 63 34 348 13 40 0 351 22 41 149 148
196 221 211 221 196 199 198 204 142 149 149 161 160 155 158 169 171 154 162 151 124 105 86 70 76 68 60 52 75 72 74 62 47 57 50 35 36 14 74 65 37 39 31 14 360 21 11 18 16
205 208 220 213 178 197 203 196 154 164 160 180 186 181 176 183 182 167 172 167 155 142 137 150 150 116 113 137 148 117 103 93 91 72 68 44 36 31 20 29 39 62 42 33 11 35 41 12 353
237 206 219 240 190 189 202 215 156 177 200 184 190 187 186 180 176 168 170 173 163 159 160 147 141 140 117 123 344 65 86 79 108 108 85 58 54 37 43 31 25 52 42 42 13 30 31 58 27
228 239 215 223 231 184 203 218 174 181 181 180 187 181 188 188 164 167 170 171 167 164 163 152 156 156 172 134 102 85 95 120 171 98 76 62 54 60 50 37 30 38 51 54 33 15 7 72 45
221 232 247 218 169 179 210 217 225 161 182 190 178 186 185 181 160 171 173 172 172 164 158 163 162 173 139 143 136 155 147 104 64 60 79 63 54 50 43 46 47 58 46 34 43 25 24 35 34
225 222 235 240 207 199 195 225 250 171 189 186 178 187 180 173 168 175 177 175 179 164 163 167 163 154 151 129 153 119 110 113 105 97 92 74 54 57 64 50 50 69 63 54 46 43 41 31 45
213 231 217 247 249 205 213 220 239 186 181 193 188 177 187 173 168 174 176 173 176 168 160 161 166 160 160 160 154 131 131 125 119 130 121 121 119 79 68 76 51 53 72 79 59 54 42 47 39
217 223 185 216 225 228 198 238 206 231 194 191 191 180 186 176 169 176 171 173 175 164 159 158 167 160 161 149 146 139 137 137 142 147 136 131 102 100 81 67 75 70 63 60 65 68 56 54 47
222 222 204 205 214 214 225 220 237 221 204 180 179 187 182 178 171 171 171 176 173 165 160 168 173 155 158 152 149 147 144 147 145 153 154 138 135 108 113 110 95 95 82 67 63 47 78 59 72
205 222 231 223 228 224 217 226 226 279 200 182 175 178 185 181 171 172 172 173 171 163 163 171 172 156 158 152 145 146 166 157 166 141 157 119 112 127 133 113 100 86 76 85 75 56 57 63 56
236 206 223 227 212 229 238 221 209 171 197 171 184 195 185 179 175 169 170 166 166 161 160 167 176 153 153 149 150 155 162 157 132 133 126 130 142 113 128 120 115 101 86 69 80 85 64 76 34
221 231 210 232 237 234 237 248 276 179 184 196 187 204 204 178 169 171 163 160 163 159 159 167 179 153 153 150 159 155 152 140 134 146 134 124 121 141 130 128 120 115 107 106 105 102 66 70 65
221 223 207 197 221 230 241 255 24 106 192 193 222 191 208 164 171 161 159 160 160 161 161 169 183 154 155 155 159 155 147 144 152 142 132 133 145 148 138 150 130 122 107 89 80 61 70 62 56